CAPE
946 1110 3045 2176 2194 2174 2103 1682 1903 1267 854 663 510 819 719 595 579 467 727 935 1133 711 465 45 43 4 39 158 273 26 5 1 6 5 10 15 7 8 17 28 2 5 53
1046 1763 3197 2940 2554 2052 1883 1780 1910 1321 1063 749 739 730 716 448 422 501 468 949 1167 862 472 194 66 19 85 229 329 42 0 0 0 0 0 0 43 16 3 11 42 43 30
1320 2391 2879 3194 2842 2130 1743 1581 1863 1539 1238 924 969 879 771 627 603 517 446 1055 1163 888 533 227 140 134 207 299 268 0 0 0 0 0 0 0 1 47 42 42 23 25 31
1998 2497 2541 3197 2999 2771 2410 2359 1959 1688 1365 1079 1424 1212 1255 917 652 360 523 959 1085 857 498 269 157 162 247 229 342 0 0 0 0 0 0 0 0 25 18 26 39 54 35
2084 2389 2418 3272 3130 2930 2696 2160 2013 1883 1596 1274 1717 1573 1724 1385 926 585 705 1116 1012 870 522 278 152 114 162 200 177 0 0 0 0 0 0 0 0 27 25 55 31 33 39
2006 2127 2687 3327 3190 3037 2439 2136 1838 1503 1985 1418 2009 2034 1757 1747 1321 842 683 961 1089 947 577 317 191 99 84 109 113 29 0 0 0 0 0 0 0 38 55 18 44 32 36
1753 1809 2594 3395 3056 2834 2455 1977 1790 1669 2475 1837 1654 2087 1857 1819 1658 1264 812 957 1260 1187 726 431 238 115 38 123 347 0 0 0 0 0 0 0 14 37 29 33 50 45 27
1639 1867 2359 3286 3255 3056 2529 2285 2442 1870 2179 2226 1985 2221 2105 1900 1900 1613 1139 906 1028 1018 942 657 402 149 26 94 83 0 0 0 0 0 0 0 28 25 21 51 26 41 43
1454 1908 2271 2607 2966 3178 3090 2804 3084 2201 2667 2378 2286 2317 2082 2164 2159 1941 1593 1192 1076 1144 1296 973 629 339 86 30 142 0 0 0 0 0 0 0 8 19 22 29 20 29 23
1250 1827 2214 2556 2746 2803 2817 2896 2977 2743 2841 2839 2848 2363 2260 2334 2352 2266 1839 1585 1131 1298 1181 1151 976 742 319 111 126 92 0 0 0 0 0 0 6 9 23 16 23 14 17
1694 1893 2092 2471 2673 2601 2245 2289 2988 3056 3172 2866 2749 2291 2055 1600 1601 1876 1682 1718 1623 1315 1371 1132 1103 1122 741 453 299 345 0 0 0 0 0 91 36 9 18 18 17 23 23
1433 1874 2010 2201 2307 2171 2204 1876 2204 2058 2369 2422 2089 1747 1504 1162 1034 1375 1495 2032 1956 1702 1540 1406 1052 1103 1289 164 0 239 0 0 0 0 9 147 57 29 10 19 12 20 19
0 316 1783 1807 1809 1664 1752 1567 1802 1842 1792 1842 1635 1290 1167 1010 670 977 1044 1506 1499 1520 1085 1112 991 664 510 145 12 4 0 0 3 10 58 123 70 32 11 10 16 20 20
0 0 0 1297 1400 1279 1114 1218 1481 1627 1532 1609 1433 1119 920 718 432 340 530 755 961 812 669 564 341 245 247 106 0 7 0 0 2 16 32 188 89 53 30 16 16 13 6
0 0 0 0 23 368 491 355 806 1072 1195 1234 925 954 790 465 239 41 193 505 700 430 415 369 255 141 16 0 0 0 0 0 0 22 36 176 151 90 45 38 13 23 16
0 0 0 0 0 0 10 36 305 501 685 528 478 390 480 501 235 34 140 261 504 197 147 233 185 135 23 0 0 0 0 0 0 9 29 66 177 131 77 83 21 33 14
0 0 0 0 0 0 0 0 178 407 612 436 476 369 390 395 283 188 292 511 424 237 291 192 147 23 3 0 0 0 0 0 0 1 27 32 64 123 115 99 27 30 6
0 0 0 0 0 0 0 0 0 250 818 725 643 673 694 649 454 290 297 493 349 312 274 225 51 25 1 0 0 1 0 0 1 0 23 25 15 11 60 115 103 56 45
0 0 0 0 0 0 0 0 0 0 0 6 196 403 653 758 776 446 308 397 359 296 264 212 73 15 1 1 15 0 0 0 0 1 13 0 2 0 0 64 104 104 76
0 0 0 0 0 0 0 0 0 0 0 0 0 0 130 448 852 434 390 240 194 246 181 95 134 10 0 13 8 0 0 0 1 0 5 0 0 0 0 24 5 2 46
0 0 0 0 0 0 0 0 0 0 0 0 0 0 110 466 659 470 476 432 298 364 309 129 12 81 1 0 0 0 0 0 0 0 0 0 0 7 0 1 4 3 7
0 0 0 0 0 0 0 0 1 3 1 0 0 0 61 523 406 484 422 356 196 162 192 74 18 7 0 0 1 0 0 0 0 0 0 0 9 29 4 8 3 11 1
0 0 0 0 0 0 0 0 0 0 7 2 0 0 21 168 275 441 468 433 238 138 105 68 17 30 17 6 0 0 0 0 0 0 0 1 6 4 7 6 1 0 0
0 0 0 0 0 0 0 0 0 0 11 11 1 0 48 36 147 300 614 512 437 189 40 70 34 1 11 29 0 0 0 0 0 0 5 3 2 2 2 2 2 2 2
0 0 0 0 0 0 0 0 0 0 0 3 122 74 233 264 129 113 351 134 22 4 62 65 3 0 3 6 0 0 0 0 0 0 2 7 1 3 2 2 2 2 2
0 0 0 0 0 0 0 0 0 0 0 14 116 281 486 489 29 14 39 6 16 143 104 17 0 0 8 0 0 0 0 0 0 0 0 3 2 4 3 2 2 2 2
CIN
-200 -153 -0 -0 -0 -0 -0 -0 -0 -0 -2 -28 -44 -2 -8 -20 -18 -20 -0 -0 -0 -0 -0 -102 -93 -0 -98 -4 -0 -81 -0 -0 -0 -3 -2 -0 -0 -0 -0 -0 -0 -2 -0
-245 -94 -0 -0 -0 -4 -3 -6 -0 -9 -18 -41 -25 -9 -8 -28 -26 -15 -9 -0 -0 -0 -0 -10 -63 -117 -37 -0 -0 -25 -0 -0 -0 -0 -0 -1 -1 -0 -0 -0 -0 -1 -0
-241 -54 -10 -0 -0 -3 -15 -18 -3 -12 -19 -38 -10 -0 -1 -2 -6 -14 -16 -0 -0 -0 -0 -6 -11 -15 -7 -0 -0 -0 -0 -0 -0 -0 -0 -0 -0 -8 -0 -0 -0 -0 -0
-195 -103 -64 -8 -1 -0 -0 -0 -1 -5 -15 -43 -3 -1 -0 -0 -3 -18 -3 -0 -0 -0 -1 -6 -11 -7 -0 -3 -0 -0 -0 -0 -0 -0 -0 -0 -0 -0 -0 -0 -0 -0 -0
-91 -33 -13 -0 -0 -0 -0 -0 -0 -0 -7 -18 -1 -0 -0 -0 -13 -44 -8 -0 -0 -0 -0 -11 -30 -28 -14 -12 -6 -0 -0 -0 -0 -0 -0 -0 -0 -1 -0 -0 -1 -0 -0
-107 -71 -2 -0 -0 -0 -0 -0 -0 -8 -0 -7 -0 -0 -0 -0 -0 -18 -20 -0 -0 -0 -1 -15 -43 -53 -45 -28 -14 -21 -0 -0 -0 -0 -0 -0 -2 -0 -49 -0 -0 -0 -0
-165 -127 -15 -0 -0 -0 -0 -1 -3 -4 -0 -0 -0 -0 -0 -0 -0 -0 -0 -0 -0 -0 -1 -8 -30 -61 -77 -13 -0 -0 -0 -0 -0 -0 -0 -0 -5 -0 -0 -0 -0 -0 -0
-160 -111 -36 -0 -0 -0 -0 -0 -0 -0 -0 -0 -0 -0 -0 -0 -0 -0 -1 -0 -0 -2 -0 -4 -13 -28 -78 -13 -21 -0 -0 -0 -0 -0 -0 -0 -5 -1 -0 -0 -0 -0 -0
-170 -105 -56 -20 -0 -0 -0 -0 -0 -0 -0 -0 -0 -0 -0 -0 -0 -0 -0 -1 -0 -0 -0 -0 -4 -14 -33 -63 -6 -0 -0 -0 -0 -0 -0 -0 -0 -1 -0 -0 -0 -0 -0
-205 -129 -80 -40 -12 -2 -0 -0 -0 -0 -0 -0 -0 -0 -0 -0 -0 -0 -0 -0 -0 -0 -0 -0 -0 -8 -16 -18 -19 -17 -0 -0 -0 -0 -0 -0 -0 -0 -0 -0 -0 -0 -0
-99 -95 -77 -41 -19 -15 -34 -17 -0 -0 -0 -0 -0 -0 -0 -5 -6 -2 -2 -0 -0 -0 -0 -0 -0 -3 -16 -17 -6 -11 -0 -0 -0 -0 -0 -0 -1 -0 -0 -0 -0 -0 -0
-97 -67 -54 -44 -45 -53 -39 -58 -14 -9 -2 -2 -4 -8 -10 -32 -45 -13 -6 -0 -0 -0 -0 -0 -0 -5 -3 -97 -0 -47 -0 -0 -0 -0 -64 -49 -7 -3 -0 -0 -0 -0 -0
-0 -264 -75 -72 -62 -73 -77 -94 -45 -26 -16 -6 -12 -34 -33 -45 -90 -39 -23 -2 -4 -3 -6 -2 -5 -28 -44 -111 -77 -62 -0 -0 -139 -100 -42 -9 -7 -6 -2 -0 -0 -0 -0
-0 -0 -0 -137 -115 -109 -109 -95 -93 -49 -46 -26 -32 -48 -63 -84 -139 -144 -84 -45 -16 -25 -36 -43 -72 -83 -75 -114 -0 -64 -0 -0 -136 -90 -76 -25 -6 -3 -4 -9 -0 -0 -0
-0 -0 -0 -0 -102 -211 -174 -198 -127 -106 -95 -85 -102 -79 -75 -120 -169 -278 -182 -87 -49 -79 -83 -84 -98 -115 -112 -0 -0 -0 -0 -80 -0 -78 -79 -14 -8 -5 -0 -3 -0 -0 -0
-0 -0 -0 -0 -0 -0 -106 -275 -157 -128 -107 -139 -170 -175 -134 -116 -187 -277 -226 -145 -76 -134 -148 -122 -127 -133 -170 -0 -0 -0 -0 -0 -133 -84 -84 -37 -21 -8 -1 -0 -9 -2 -2
-0 -0 -0 -0 -0 -0 -0 -0 -205 -149 -112 -149 -150 -189 -163 -137 -136 -172 -166 -97 -111 -139 -140 -157 -139 -176 -127 -0 -0 -0 -0 -0 -161 -30 -81 -59 -64 -16 -7 -0 -3 -2 -1
-0 -0 -0 -0 -0 -0 -0 -0 -0 -90 -92 -107 -124 -143 -125 -116 -137 -147 -127 -104 -148 -146 -142 -138 -172 -206 -0 -0 -0 -77 -0 -0 -129 -24 -69 -63 -109 -43 -15 -8 -2 -0 -1
-0 -0 -0 -0 -0 -0 -0 -0 -0 -0 -0 -55 -210 -175 -120 -118 -114 -143 -164 -155 -178 -138 -118 -127 -169 -214 -0 -0 -87 -0 -26 -16 -0 -47 -73 -9 -53 -0 -0 -17 -12 -4 -2
-0 -0 -0 -0 -0 -0 -0 -0 -0 -0 -0 -0 -0 -0 -273 -195 -124 -149 -145 -137 -171 -164 -148 -151 -114 -168 -0 -140 -114 -0 -21 -0 -28 -18 -55 -0 -0 -0 -0 -41 -22 -3 -2
-0 -0 -0 -0 -0 -0 -0 -0 -0 -0 -0 -0 -0 -0 -282 -210 -150 -166 -123 -128 -106 -62 -176 -121 -141 -86 -0 -0 -0 -0 -0 -0 -0 -0 -0 -0 -0 -79 -0 -50 -80 -69 -55
-0 -0 -0 -0 -0 -0 -0 -0 -0 -0 -1 -1 -0 -0 -283 -160 -219 -193 -190 -160 -162 -202 -181 -206 -178 -151 -0 -0 -90 -0 -0 -0 -0 -0 -0 -0 -72 -49 -55 -36 -53 -51 -78
-0 -0 -0 -0 -0 -0 -0 -0 -0 -0 -300 -4 -0 -0 -306 -233 -244 -221 -205 -202 -254 -240 -208 -178 -189 -168 -150 -118 -0 -0 -0 -0 -0 -0 -0 -0 -76 -27 -55 -42 -17 -0 -0
-0 -0 -0 -0 -0 -0 -0 -0 -0 -0 -288 -286 -4 -0 -266 -341 -318 -289 -182 -191 -225 -241 -263 -180 -156 -49 -121 -25 -0 -0 -0 -0 -0 -0 -0 -0 -0 -0 -0 -0 -0 -0 -0
-0 -0 -0 -0 -0 -0 -0 -0 -0 -0 -0 -120 -177 -188 -168 -210 -319 -350 -266 -369 -451 -531 -269 -148 -22 -0 -51 -64 -0 -0 -0 -0 -0 -0 -0 -0 -0 -0 -0 -0 -0 -0 -0
-0 -0 -0 -0 -0 -0 -0 -0 -0 -0 -0 -308 -222 -108 -63 -109 -397 -406 -410 -315 -393 -231 -180 -159 -0 -0 -145 -0 -0 -0 -0 -0 -0 -0 -0 -0 -0 -0 -0 -0 -0 -0 -0
Wind_Speed
4 6 12 13 12 11 11 10 10 10 9 9 9 8 8 8 8 8 7 7 10 10 10 10 9 9 10 9 11 12 12 12 11 11 11 13 13 14 14 15 14 7 17
8 9 15 15 15 15 14 13 13 12 11 10 9 8 8 7 7 7 6 6 10 10 10 9 8 8 9 9 11 12 13 13 12 11 12 12 10 14 12 13 13 13 17
13 12 14 16 15 15 14 13 13 13 11 11 10 9 8 6 7 6 6 6 8 10 9 8 8 8 8 9 9 10 12 12 11 13 13 6 6 14 15 16 17 16 16
14 14 14 19 17 16 14 13 13 12 11 12 12 11 12 9 6 5 4 3 8 8 8 7 7 7 7 8 9 10 10 11 12 12 6 5 6 15 16 15 15 16 16
6 7 8 14 13 12 12 13 12 11 11 11 11 12 12 11 11 10 8 5 7 7 6 6 6 6 6 7 7 9 9 10 11 8 6 6 5 10 15 16 14 17 17
7 7 10 14 14 13 13 13 12 12 13 12 10 12 11 11 11 10 8 8 9 9 7 5 4 4 5 5 3 9 9 9 8 5 5 7 6 15 14 16 15 16 17
7 6 10 16 16 15 14 14 13 13 14 12 12 12 11 10 10 10 8 7 6 10 9 7 3 2 4 6 8 10 9 8 4 4 5 5 5 14 15 15 16 15 16
8 8 9 15 15 15 16 15 14 13 13 13 12 13 12 11 11 11 10 9 7 7 9 8 7 5 4 5 5 7 7 6 3 4 4 4 12 13 13 13 16 16 17
6 8 8 10 13 16 16 15 14 14 13 13 13 12 11 10 10 10 12 11 10 8 10 9 8 6 5 6 5 6 7 5 3 2 2 2 10 11 13 15 14 15 18
7 9 9 8 10 9 9 15 14 14 13 13 13 12 11 9 8 9 11 12 12 11 10 10 9 8 6 5 6 9 8 6 2 2 2 3 9 12 13 13 14 14 16
5 6 5 6 7 6 6 7 13 14 13 13 13 12 8 4 5 6 7 11 13 12 12 11 11 10 8 6 7 8 9 3 2 0 1 5 9 11 12 12 12 15 15
4 4 3 5 7 7 7 7 6 6 5 5 5 5 4 5 5 6 7 12 14 14 13 13 11 10 8 2 2 3 3 4 2 0 2 4 9 10 11 11 11 14 15
3 3 8 6 5 6 7 4 4 4 3 4 6 5 5 4 4 3 3 3 3 10 3 6 5 4 4 3 2 2 4 4 2 2 2 1 8 10 10 9 12 12 13
5 6 6 6 6 5 2 3 5 7 6 5 6 7 5 4 4 4 3 4 4 3 4 4 3 4 5 2 3 2 4 4 3 2 2 2 7 9 9 8 9 11 12
6 5 8 9 4 2 5 3 3 5 5 6 6 7 6 5 5 4 5 4 5 4 5 5 4 4 4 2 3 5 6 6 5 3 2 5 7 7 7 8 9 9 11
5 5 4 7 6 6 3 3 4 3 4 4 3 5 7 7 6 5 5 5 4 4 4 4 5 5 4 4 4 3 5 5 5 3 3 2 7 6 6 6 8 9 9
6 5 6 6 6 6 4 4 3 4 4 5 5 6 6 6 7 7 5 5 6 6 8 5 4 3 3 3 3 3 5 5 5 5 3 2 4 4 6 5 7 6 7
6 9 8 7 7 7 6 4 4 4 2 5 6 5 7 9 8 7 4 7 7 6 6 5 4 4 3 3 3 0 3 5 5 4 4 1 3 2 3 5 4 6 8
7 7 9 9 8 7 6 5 5 5 4 4 4 4 7 9 10 8 8 8 7 5 6 7 4 4 3 3 3 1 3 4 5 3 5 4 3 3 1 2 5 4 5
9 8 9 9 13 11 5 5 4 4 4 4 5 5 8 8 8 8 8 6 5 6 4 5 5 4 3 4 4 3 3 3 4 3 3 3 3 4 3 2 3 3 2
12 12 10 10 10 8 7 5 3 6 7 5 6 9 9 8 8 10 7 7 6 10 9 9 3 5 2 5 5 5 4 4 4 3 1 2 2 2 3 3 2 2 3
10 12 13 11 8 8 7 6 3 5 4 7 7 8 10 10 7 7 8 9 11 5 7 8 6 3 3 6 4 3 3 3 4 4 2 4 6 4 4 4 4 4 3
10 9 12 14 14 8 8 8 7 4 3 3 8 9 5 7 9 10 10 9 10 8 8 8 8 8 4 7 7 4 3 3 3 3 5 6 7 5 5 5 5 5 5
7 7 8 11 13 13 10 7 7 7 9 7 6 9 10 9 8 9 9 9 9 7 8 7 6 6 7 10 2 2 2 6 4 3 3 5 6 7 7 6 7 6 6
8 8 6 8 13 13 12 11 7 9 9 8 7 9 11 7 8 8 8 8 7 6 6 8 8 7 4 7 4 3 2 4 3 5 4 3 5 5 6 6 6 6 7
9 9 6 8 9 13 9 9 11 9 11 10 10 9 7 5 4 7 5 5 5 5 8 8 8 10 6 6 4 4 5 5 4 4 5 4 4 4 5 6 6 6 6
Wind_Direction
220 175 174 170 178 174 175 170 160 143 137 128 125 127 118 114 111 106 94 85 101 99 96 81 79 75 80 68 60 64 56 48 52 38 25 27 32 30 26 23 14 13 13
146 173 173 179 178 176 170 167 160 154 150 144 141 141 130 125 117 111 96 92 107 102 94 87 82 83 82 63 46 70 59 56 57 48 34 17 18 36 33 23 13 23 13
158 172 175 174 175 178 173 167 164 163 162 154 155 151 141 138 123 118 108 100 113 107 96 91 87 88 80 59 55 75 62 59 55 46 32 12 349 46 41 25 23 20 18
164 170 174 174 177 178 174 167 170 170 171 166 172 168 161 152 137 130 117 114 120 110 101 94 86 87 78 60 50 78 68 65 57 41 15 2 357 32 33 33 29 30 22
156 161 171 173 174 177 177 175 178 182 180 182 187 183 174 163 159 156 155 138 126 121 110 96 84 87 82 70 68 89 75 73 64 41 18 358 356 38 38 40 26 32 25
163 167 177 175 176 182 186 189 189 194 189 189 196 179 182 177 171 164 166 161 162 148 137 127 109 92 80 70 96 117 86 75 63 41 21 5 356 45 39 36 34 32 30
171 172 178 181 185 188 191 196 197 202 201 190 193 197 191 190 184 175 176 177 181 160 150 150 140 88 75 70 104 116 99 88 68 49 28 9 32 43 37 33 41 34 28
176 182 186 191 191 191 197 200 204 205 217 193 198 206 190 201 204 185 182 187 188 179 167 170 175 175 124 103 108 127 116 106 71 64 39 13 46 45 40 32 38 28 32
176 185 191 195 197 197 199 202 200 203 206 200 206 202 204 207 210 200 194 189 193 198 186 184 190 201 174 142 125 154 133 129 79 22 39 8 49 53 49 43 35 36 34
191 195 197 196 196 198 200 203 202 202 208 206 207 203 205 205 223 217 207 203 201 201 191 192 201 212 217 173 149 155 148 122 102 30 9 35 61 51 53 46 42 34 39
216 210 203 200 201 196 199 208 208 211 214 213 208 200 202 188 223 221 200 213 212 211 208 205 206 223 226 220 166 163 140 141 166 36 322 88 79 63 55 48 39 41 44
268 277 263 230 209 196 204 201 196 197 202 200 193 189 182 197 208 210 210 211 218 216 215 212 214 221 233 211 88 147 153 158 151 194 294 105 93 74 65 57 45 44 40
338 214 208 221 228 229 225 196 199 201 192 192 190 190 200 207 209 212 206 223 226 223 220 222 225 221 236 173 140 177 184 156 170 189 277 142 105 88 77 65 56 48 43
42 10 346 227 191 216 262 264 203 213 209 204 199 198 202 212 210 213 213 208 199 209 204 219 223 203 220 171 162 205 200 178 166 183 243 194 112 98 89 73 65 56 49
65 31 32 41 15 266 229 268 263 242 214 216 202 204 198 203 211 202 223 212 209 199 189 203 211 197 218 218 207 217 198 176 159 172 178 187 126 110 96 85 63 61 50
68 48 38 56 38 42 45 284 251 257 272 251 221 219 209 214 213 200 198 219 213 202 210 203 215 194 196 171 217 235 191 163 170 173 164 224 136 125 105 97 83 59 51
21 20 34 49 29 32 9 358 300 231 207 221 231 221 221 216 230 205 192 203 211 206 198 181 191 156 182 187 215 217 180 180 143 161 160 212 129 129 119 107 95 67 54
15 16 11 19 16 16 14 356 336 322 228 234 234 223 222 222 211 213 201 222 211 192 193 172 183 188 205 193 168 231 158 146 134 152 152 154 74 57 56 105 79 87 70
20 10 5 359 8 357 359 351 337 319 290 251 243 254 254 240 219 203 203 214 194 193 193 177 182 157 158 179 183 125 123 118 113 187 159 154 134 107 70 103 112 20 99
19 18 14 8 3 355 344 333 333 324 310 296 278 243 239 235 230 194 216 223 196 179 193 179 175 149 147 150 125 103 91 137 138 157 157 142 139 132 71 67 67 5 38
18 15 9 6 352 351 346 340 359 339 316 294 287 279 265 247 214 183 199 178 161 214 183 179 150 159 113 131 117 98 71 69 84 89 103 108 138 144 134 75 57 33 354
4 2 1 2 355 336 349 333 305 326 316 300 294 274 263 252 214 193 191 188 187 162 165 167 143 134 130 175 174 132 131 72 51 52 52 68 62 55 63 52 45 33 359
7 356 358 350 345 337 343 331 332 312 283 307 317 309 287 252 213 206 189 180 171 168 172 169 175 160 160 184 221 137 127 151 122 35 60 57 57 53 48 54 48 34 23
345 341 343 349 339 337 340 331 326 314 317 319 297 289 289 247 223 208 182 178 175 168 170 170 176 168 157 192 179 106 77 135 150 145 65 59 60 51 39 36 36 30 20
326 329 349 349 341 334 332 348 315 312 302 309 296 282 282 252 221 209 184 176 164 158 156 147 146 155 146 184 180 142 88 69 83 128 140 113 68 38 41 34 26 17 18
329 326 340 352 352 319 331 330 303 312 298 316 305 295 293 256 212 205 188 164 161 166 162 170 149 133 176 190 125 142 144 151 158 128 120 100 108 47 43 40 27 13 6